Current Version              Previous Version:    01  02  03  04  05  06  07  08  09  10  11  12  13  14  15  16  17  18  19  20  21  22  23  24  25  26  27  28  29  30  
   31  32  33  34  35  36  37  38  39  40  41  42  43  44  45  46  47  48  49  50  51  52  53  54  55  56  57  58  59  60  

[Printable]
863
ASUS44 KLUB 011310
RWRTX
WEST TEXAS WEATHER ROUNDUP
NATIONAL WEATHER SERVICE LUBBOCK TX
800 AM CDT WED OCT 01 2014

NOTE: "FAIR" INDICATES FEW OR NO CLOUDS BELOW 12,000 FEET WITH NO
SIGNIFICANT WEATHER AND/OR OBSTRUCTIONS TO VISIBILITY.

TXZ004-006>008-010-012-014-016-OKZ002-011400-
TEXAS PANHANDLE/OKLAHOMA PANHANDLE

CITY           SKY/WX    TMP DP  RH WIND       PRES   REMARKS
AMARILLO       CLEAR     50  42  74 SW6       29.83R
BORGER         CLEAR     56  42  59 W10       29.80R
CANADIAN       CLEAR     55  51  87 SW5       29.74R
DALHART        CLEAR     52  42  69 NW12      29.85R
DUMAS          CLEAR     51  42  71 NW7       29.81R
GUYMON         CLEAR     58  42  55 NW15      29.77R
HEREFORD       CLEAR     51  46  83 SW5       29.86S
PAMPA          CLEAR     54  40  59 W10       29.80R
PERRYTON       CLEAR     49  42  75 W7        29.75R
$$

TXZ026-029-035-045-048-011400-
SOUTHERN PANHANDLE/SOUTH PLAINS/ROLLING PLAINS

CITY           SKY/WX    TMP DP  RH WIND       PRES   REMARKS
CHILDRESS      CLEAR     65  62  90 SW8       29.77R
SEMINOLE       CLEAR     58  58  97 CALM      29.87R FOG
LUBBOCK        CLEAR     58  50  75 SW7       29.85R
PLAINVIEW      CLEAR     52  49  89 W6        29.84R
SNYDER         CLEAR     66  63  89 S7        29.84R
$$

TXZ052-054-060>062-072-078-127-140-154-169-011400-
PERMIAN BASIN/CONCHO VALLEY/BIG COUNTRY/EDWARDS PLATEAU

CITY           SKY/WX    TMP DP  RH WIND       PRES   REMARKS
ABILENE        MOCLDY    72  63  73 S13       29.81R
BIG SPRING     CLEAR     66  62  87 SE6       29.86R
BROWNWOOD      CLEAR     68  66  94 SE5       29.83S
JUNCTION       CLOUDY    73  68  84 S9        29.84R
MIDLAND        CLEAR     69  63  81 S6        29.84R
ODESSA         CLEAR     66  62  87 S7        29.85R
SAN ANGELO     MOCLDY    70  66  87 W7        29.82R
SONORA         CLOUDY    72  70  94 S12       29.89R
SWEETWATER     CLEAR     69  63  81 S9        29.86R
WINK           CLEAR     65  63  93 CALM      29.83R
$$

TXZ055-058-074-075-080-082-011400-
FAR WEST/SOUTHWEST MOUNTAINS/TRANS PECOS

CITY           SKY/WX    TMP DP  RH WIND       PRES   REMARKS
ALPINE         CLEAR     63  55  76 SW8       30.00S
DRYDEN           N/A     69  65  86 N6        29.82R
EL PASO        CLEAR     65  37  35 S8        29.91R
FORT STOCKTON  CLEAR     67  59  75 S8        29.85R
GUADALUPE PASS CLEAR     57  38  48 SW13      30.00R
MARFA          CLEAR     52  48  87 NW3       30.00R
PECOS          CLEAR     60  56  84 SW5       29.84R
PRESIDIO       FAIR      68  60  74 CALM      29.87R
$$

TXZ014-016-019-021>030-083-011400
TEXAS TECH WEST TEXAS MESONET/TEXAS PANHANDLE/NORTHERN SOUTH PLAINS

CITY           SKY/WX    TMP DP  RH WIND       PRES   REMARKS
ABERNATHY 5ENE   N/A     55  51  87 W8        29.86R
AMARILLO 9NNE    N/A     51  42  71 SW5       29.83R
AMARILLO 7SSE    N/A     47  42  85 SW8       29.85S
AMHERST 1NE      N/A     53  48  82 SW8       29.87R
BOOTLEG 11WNW    N/A     51  38  62 NW9       29.91R
CANADIAN 6E      N/A     57  55  91 S6        29.73R
CAPROCK CYN SP   N/A     64  48  56 W6        29.81R
CHILDRESS 2NNE   N/A     67  63  88 SW8       29.76R
CLARENDON 2WSW   N/A     58  44  59 W9        29.79R
CLAUDE 12SW      N/A     58  41  53 W7        29.83R
DIMMITT 2NE      N/A     53  42  64 W9        29.87R
FLOYDADA 2NNE    N/A     54  52  94 SW7       29.84R
FRIONA 2NE       N/A     49  42  75 W5        29.88S
GOODLETT 3W      N/A     68  62  80 S9        29.75R
HART 3N          N/A     49  44  85 NW7       29.85S
HEREFORD 2NW     N/A     49  43  80 SW6       29.86R
MCLEAN 1E        N/A     61  43  51 W10       29.76R
MEMPHIS 1NE      N/A     55  54  96 N1        29.76R
OLTON 6S         N/A     51  47  86 SW8       29.86R
PALO DURO SP     N/A     55  42  60 W10       29.84R
PAMPA 2E         N/A     58  42  56 W9        29.78R
PLAINVIEW 1S     N/A     54  50  86 W3        29.84R
SILVERTON 7ESE   N/A     55  50  85 SW12      29.83R
TULIA 2ENE       N/A     54  44  69 W8        29.84R
TURKEY 2WSW      N/A     61  53  75 W12       29.78R
UMBARGER 3NNE    N/A     50  43  76 SW7       29.86R
$$

TXZ033>036-039>041-045>048-011400
TEXAS TECH WEST TEXAS MESONET/SOUTH PLAINS

CITY           SKY/WX    TMP DP  RH WIND       PRES   REMARKS
AIKEN 3WSW       N/A     51  50  94 SW6       29.86R
ANDREWS 2NE      N/A     65  61  86 S7        29.85R
ANTON 6SSW       N/A     54  51  89 W8        29.86R
BROWNFIELD 2S    N/A     58  56  94 W6        29.86R
DENVR CTY 7WNW   N/A     57  54  90 W6        29.87R
GAIL 2ESE        N/A     65  62  89 S5        29.83R
LAMESA 2SE       N/A     61  60  96 SE2       29.85R
LEVELLAND 4S     N/A     51  47  89 W3        29.87R
LUBBOCK 3WNW     N/A     55  50  81 CALM      29.86R
MORTON 1ENE      N/A     50  47  90 S3        29.88R
ODONNELL 1N      N/A     62  60  92 S5        29.85R
PLAINS 3N        N/A     52  47  83 W5        29.88
RALLS 1SE        N/A     60  56  88 SW7       29.86R
REESE CENTER     N/A     54  50  84 W6        29.86R
SEMINOLE 2NNE    N/A     59  57  93 W3        29.86R
SLATON 2NE       N/A     58  56  94 SW2       29.85R
SNYDER 3E        N/A     65  62  91 S8        29.83R
SUNDOWN 8SW      N/A     52  46  82 W9        29.87R
TAHOKA 3NNE      N/A     61  60  97 W3        29.85R
WOLFFORTH 6SSW   N/A     55  53  90 W3        29.86R
$$

TXZ031-032-036>038-042>044-011400-
TEXAS TECH WEST TEXAS MESONET/ROLLING PLAINS

CITY           SKY/WX    TMP DP  RH WIND       PRES   REMARKS
ASPERMONT 3NE    N/A     69  62  80 W1        29.78R
FLUVANNA 3WNW    N/A     66  61  85 S7        29.83R
GRAHAM 5SSW      N/A     66  61  85 SW2       29.84R
GUTHRIE 10WSW    N/A     65  62  89 SW5       29.79R
HASKELL 1NW      N/A     69  60  73 S5        29.77R
JAYTON 1SSE      N/A     70  63  79 S8        29.80R
KNOX CITY 3NW    N/A     65  59  80 S6        29.77S
LK A HENRY 1NW   N/A     70  63  79 SW7       29.81R
NORTHFIELD 1S    N/A     61  60  96 W6        29.77R
ODELL 4ENE       N/A     72  62  70 S13       29.76R
PADUCAH 10SW     N/A     68  64  85 SW13      29.77R
POST 1NE         N/A     66  62  88 SW7       29.82R
RRING SPRGS 3N   N/A     64  61  90 SW9       29.81R
SEYMOUR 3NW      N/A     71  60  69 SW8       29.76R
SPUR 1W          N/A     63  60  91 NW3       29.80R
WEINERT 2NNE     N/A     68  61  77 S5        29.78R
WHITE RVR 6NE    N/A     65  62  88 W2        29.82R
$$

TXZ052-054-060>062-072-078-127-140-154-169-011400-
TEXAS TECH WEST TEXAS MESONET/PERMIAN BASIN/
CONCHO VALLEY/BIG COUNTRY/EDWARDS PLATEAU

CITY           SKY/WX    TMP DP  RH WIND       PRES   REMARKS
COYANOSA 2N      N/A     63  60  91 S3        29.84R
JUNCTION 1SSW    N/A     73  68  84 S10       29.85R
MERTZON 3NNE     N/A     71  66  85 S15       29.84S
SAN ANGELO 7NW   N/A     67  61  81 SE5       29.83R
STRLNG CT 4WSW   N/A     69  64  82 S6        29.85R
ST LAWRNCE 5SW   N/A     68  62  83 S8        29.84S
SWEETWATR 11SW   N/A     67  62  84 S3        29.86R
WALL 1E          N/A     71  65  83 S5        29.83R
$$

TXZ055-058-074-075-080-082-011400-
TEXAS TECH WEST TEXAS MESONET/FAR WEST/SOUTHWEST MOUNTAINS/TRANS PECOS

CITY           SKY/WX    TMP DP  RH WIND       PRES   REMARKS
PRSMN GAP BBNP   N/A     69  63  81 CALM      29.87R
GUADLPE MTN NP   N/A     66  36  33 W14       29.99R
$$